Regional Weather Roundup
Issued by NWS

Home | Current Version | Previous Version | Text Only | Print | Product List | Glossary Off
Versions: 1 2 3 4 5 6 7 8 9 10 11 12 13 14 15 16 17 18 19 20 21 22 23 24 25 26 27 28 29 30 31 32 33 34 35 36 37 38 39 40 41 42 43 44 45 46 47 48 49 50

000
ASUS43 KIND 050309
RWRIN

WEATHER ROUNDUP FOR INDIANA
NATIONAL WEATHER SERVICE INDIANAPOLIS IN
1100 PM EDT WED MAY 04 2016

NOTE: "FAIR" INDICATES FEW OR NO CLOUDS BELOW 12,000 FEET WITH NO
SIGNIFICANT WEATHER AND/OR OBSTRUCTIONS TO VISIBILITY.

* - STATION DOES NOT REPORT WEATHER SUCH AS PRECIPITATION OR FOG.

+ - STATION NOT QUALITY CONTROLLED BY THE NATIONAL WEATHER SERVICE.
    USE DATA WITH CAUTION...ESPECIALLY DEWPOINT AND RELATIVE
    HUMIDITY OBSERVATIONS.

INZ001>003-010>013-019-020-050400-
NORTHWEST INDIANA

CITY           SKY/WX    TMP DP  RH WIND       PRES   REMARKS
GARY /AIRPORT/ MOCLDY    45  41  87 N17G35    29.87R
KNOX *+        CLOUDY    41  34  75 NW16G24   29.79S
LA PORTE +     LGT RAIN  42  42 100 N20G25    29.80S
MICHIGAN CITY+ DRIZZLE   39  37  93 N20G29    29.82S
MONTICELLO +   DRIZZLE   42  36  77 NW13G26   29.81S
RENSSELAER +   CLOUDY    43  37  81 N14       29.84S
VALPARAISO     CLOUDY    41  36  82 N13G26    29.82S

$$

LMZ046-743>745-050400-
SOUTHERN LAKE MICHIGAN

STATION/POSITION TIME  TEMP    WIND        PRES    WAVE
                       AIR SEA DIR/SP/G            HT
                 (UTC) (F)     (DEG/KT/KT) (MB)    (FT)
BURNS HARBOR     0301   44     360/ 24/ 29 1010.8S
MICHIGAN CITY    0200   42     340/ 35/ 38   N/A

$$

INZ004-005-014>016-021>024-050400-
NORTH CENTRAL INDIANA

CITY           SKY/WX    TMP DP  RH WIND       PRES   REMARKS
GOSHEN         LGT RAIN  40  38  93 NW13      29.72S FOG
LOGANSPORT +   CLOUDY    41  36  81 NW14G22   29.79S
ROCHESTER +    RAIN      43  41  93 NW17G25   29.76S
SOUTH BEND     CLOUDY    40  38  93 N26G33    29.76S
WARSAW +       DRIZZLE   37  37 100 NW13      29.73F

$$

INZ006>009-017-018-025>027-050400-
NORTHEAST INDIANA

CITY           SKY/WX    TMP DP  RH WIND       PRES   REMARKS
ANGOLA *+        N/A     39  36  87 W3        29.70R
AUBURN +       CLOUDY    37  36  93 W7        29.72S FOG
FORT WAYNE     CLOUDY    39  37  92 NW8       29.74R
HUNTINGTON +   CLOUDY    38  37  93 NW6       29.74S FOG

$$

INZ028-029-035-036-043>045-051>053-050400-
WEST CENTRAL INDIANA

CITY           SKY/WX    TMP DP  RH WIND       PRES   REMARKS
CRAWFORDSVL +  CLOUDY    43  40  91 NW9       29.82S
GREENCASTLE +  CLOUDY    45  41  87 NW5       29.82S
LAFAYETTE      CLOUDY    44  37  76 N12       29.83R
TERRE HAUTE    CLOUDY    50  38  63 N3        29.83S

$$

INZ030>032-037>040-046>048-054>057-064-065-050400-
CENTRAL INDIANA

CITY           SKY/WX    TMP DP  RH WIND       PRES   REMARKS
CP ATTERBURY + CLOUDY    45  39  81 NW5       29.81F
FISHERS *+     CLOUDY    41  41 100 NW8       29.79S
FRANKFORT +      N/A     44  32  64 N15G21    29.82S
GREENWOOD *+   CLOUDY    45  37  76 NW6       29.80F
INDIANAPOLIS   LGT RAIN  45  37  73 NW13      29.79F
-EAGLE CREEK   LGT RAIN  46  38  73 NW14      29.79S
KOKOMO *+      CLOUDY    41  36  81 NW20G25   29.76F
MARION +       CLOUDY    39  37  92 NW10G18   29.76S FOG
SHELBYVILLE    LGT RAIN  47  37  68 NW17      29.78F
ZIONSVILLE +   LGT RAIN  42  39  89 NW9       29.80S

$$

INZ033-034-041-042-049-050-058-059-050400-
EAST CENTRAL INDIANA

CITY           SKY/WX    TMP DP  RH WIND       PRES   REMARKS
MUNCIE         LGT RAIN  42  37  82 NW17G24   29.75S

$$

INZ060-061-067>069-081>083-085>088-050400-
SOUTHWEST INDIANA

CITY           SKY/WX    TMP DP  RH WIND       PRES   REMARKS
EVANSVILLE     MOCLDY    53  40  61 NW6       29.87R
HUNTINGBURG *+ MOCLDY    50  37  62 N7        29.85R
WASHINGTON +   CLOUDY    51  42  73 NW5       29.84S

$$

INZ062-063-066-070>080-084-089>092-050400-
SOUTH CENTRAL AND SOUTHEAST INDIANA

CITY           SKY/WX    TMP DP  RH WIND       PRES   REMARKS
BEDFORD +      CLOUDY    48  46  93 NW3       29.82R
BLOOMINGTON    CLOUDY    48  39  71 VRB5      29.82S
MADISON *+     PTCLDY    46  36  66 NW6       29.82R
NORTH VERNON + CLOUDY    46  45  93 CALM      29.81R
SEYMOUR +      PTCLDY    50  39  66 NW10      29.82R

$$




USA.gov is the U.S. government's official web portal to all federal, state and local government web resources and services.